GFSWCAN_925_spd_117.txt.gz
Wind_Speed
23 23 20 17 18 22 19 18 19 17 17 13 13 12 11 9 16 19 8 16 9 2 5 5 3 5 4 3 3 5 5 3 4 6 3 3 3 3 4 7 7 4 3 1 2 4 5 8 6 2 6 6 11 11
25 25 25 25 24 22 20 17 18 18 16 13 15 13 11 10 15 19 6 13 16 3 3 3 12 15 14 17 3 1 2 5 2 2 2 2 2 3 5 4 3 3 3 3 3 3 3 4 7 10 4 4 9 9
28 27 26 24 26 27 23 17 18 17 15 17 16 14 12 10 17 18 9 11 10 2 5 8 10 13 17 27 22 4 2 4 3 3 2 2 4 1 3 4 6 4 6 3 5 2 7 12 7 6 6 7 7 9
26 27 26 26 28 27 24 19 22 21 20 19 17 16 14 13 13 14 11 14 7 1 2 5 7 10 11 11 18 28 11 0 1 2 2 3 3 2 3 7 9 4 7 9 5 4 12 10 12 10 12 13 12 12
28 27 26 27 27 26 27 22 21 21 21 20 18 17 15 14 12 11 9 11 14 2 2 5 13 26 14 17 20 21 18 7 3 2 3 3 2 3 3 3 3 4 6 4 3 14 2 5 8 10 13 13 11 10
28 28 28 28 27 28 26 23 21 22 19 20 17 16 14 14 11 9 1 13 21 16 2 3 4 5 4 10 17 15 13 4 3 3 3 3 3 2 3 3 3 5 8 6 5 11 10 11 12 9 9 8 9 10
28 27 26 27 29 28 25 24 25 19 20 18 17 15 13 15 16 5 3 3 5 20 2 3 4 3 2 4 3 3 9 3 3 3 3 3 3 2 2 3 7 10 11 9 14 13 9 14 7 12 9 8 10 10
27 27 27 30 29 28 26 25 26 23 20 18 17 12 13 13 13 10 19 7 13 6 2 2 4 4 3 1 2 4 4 4 4 3 2 3 2 3 4 4 8 12 11 9 15 10 7 8 10 12 14 10 9 8
28 27 28 27 29 28 27 26 23 22 21 17 13 13 8 6 4 5 8 9 17 5 3 3 2 3 2 1 1 2 3 3 3 4 3 4 3 4 4 5 8 9 9 12 13 9 12 12 12 13 12 12 9 8
26 27 28 29 29 29 28 26 23 24 21 18 14 6 2 9 12 15 8 5 3 3 3 4 3 4 0 0 1 1 2 2 3 3 3 3 2 7 7 6 6 9 10 11 8 12 14 13 12 12 12 9 9 7
24 26 26 27 28 27 29 26 26 24 21 12 6 3 5 25 8 2 3 4 4 3 4 4 8 4 2 3 2 2 1 1 2 2 2 3 3 3 6 6 7 8 9 9 8 8 9 9 10 10 11 10 11 10
22 23 25 25 28 26 26 27 28 25 12 12 9 10 10 4 3 4 3 3 5 5 4 4 5 5 2 1 2 1 2 0 2 0 2 2 2 4 5 7 7 8 10 10 12 10 11 11 12 11 10 11 10 8
22 22 21 24 26 25 27 30 29 24 14 10 5 4 4 3 4 7 8 4 4 3 4 5 3 3 1 2 1 1 2 3 0 1 1 2 5 4 5 5 5 8 10 10 11 11 11 10 11 12 11 11 8 6
23 23 23 26 26 27 29 28 28 25 11 3 5 7 5 5 5 5 5 6 4 3 6 4 3 2 2 3 1 3 1 1 2 2 1 2 3 3 3 4 5 7 7 7 9 10 10 10 10 10 11 10 7 5
24 24 24 25 27 25 25 26 26 17 6 3 4 6 7 3 1 1 2 3 0 3 6 3 2 2 1 2 2 1 2 3 1 0 2 2 2 3 3 5 5 5 5 5 5 6 8 9 8 9 12 10 7 5
25 24 29 29 29 27 26 26 20 7 3 1 3 3 2 4 2 2 3 3 1 3 2 2 2 2 2 2 3 3 2 3 1 1 1 1 1 2 2 3 3 3 3 4 6 7 8 9 8 6 8 10 8 6
25 12 27 34 30 30 28 11 5 2 1 2 0 2 2 3 3 2 2 2 4 2 3 3 4 5 2 2 2 1 1 2 1 1 1 2 1 1 2 3 4 3 2 2 3 5 6 7 5 6 8 7 6 6
21 32 31 37 38 30 9 3 4 4 4 1 2 2 3 3 2 3 2 3 2 0 1 2 2 2 3 3 2 2 1 1 0 2 3 2 2 3 3 4 4 4 3 2 1 3 5 5 5 4 4 4 4 5
33 41 45 49 37 13 3 3 3 4 2 2 3 3 3 3 4 4 2 4 5 4 3 2 4 2 2 1 1 0 0 1 2 2 2 4 3 4 4 4 4 3 2 2 2 2 3 4 3 3 3 2 2 3
45 41 35 28 19 6 4 2 3 4 3 2 3 3 3 2 1 2 5 5 3 2 5 4 2 1 2 1 0 0 1 2 2 1 1 3 7 5 6 4 3 2 2 3 3 3 3 3 4 4 3 2 2 4
31 21 21 17 5 9 4 2 4 2 3 3 3 2 2 2 3 3 4 4 4 3 2 1 1 2 2 4 3 1 4 5 2 1 1 2 5 6 6 7 5 4 3 3 3 4 4 4 3 4 4 4 4 6
11 14 6 6 4 4 4 5 4 3 3 3 2 2 2 2 2 2 2 5 3 2 1 1 2 2 4 3 5 7 5 7 6 6 7 6 3 4 6 7 5 5 5 5 3 3 3 3 3 5 5 6 5 6
8 7 8 7 5 5 2 1 4 2 3 2 2 3 2 2 1 1 3 2 1 2 2 3 6 8 7 6 7 9 9 6 7 7 6 6 7 7 6 7 6 4 4 5 4 3 3 4 5 6 6 7 7 8
9 6 5 3 4 2 2 2 2 3 3 2 3 3 1 2 1 3 3 1 1 3 3 4 4 3 4 6 5 6 7 5 6 8 8 5 6 7 7 8 8 8 5 3 4 4 5 6 6 6 7 7 7 8
6 6 4 4 3 4 4 3 2 3 2 2 3 2 1 2 2 2 2 1 1 2 3 5 6 4 2 2 4 5 8 5 5 6 8 8 4 4 6 7 8 7 6 4 4 4 5 5 6 6 6 7 7 8
6 3 4 1 2 4 2 3 2 3 3 3 2 2 2 2 3 3 2 2 1 1 1 2 3 4 5 6 3 4 5 4 6 7 8 8 7 5 5 5 5 8 8 4 3 3 4 4 4 5 5 5 7 8
4 2 2 3 1 3 3 3 3 3 3 3 2 2 2 3 2 1 2 2 2 3 4 6 6 6 6 6 9 10 11 10 10 10 9 11 13 12 9 6 6 8 9 4 1 2 3 3 4 5 5 5 5 6
3 3 4 3 4 4 3 3 3 2 2 2 3 3 3 4 2 1 1 4 10 9 10 9 8 6 6 6 6 6 7 9 9 9 10 13 14 13 12 11 9 8 9 8 5 2 2 3 4 5 5 6 6 6
3 2 3 5 4 4 4 2 1 2 2 1 3 2 2 2 1 1 4 9 9 9 10 10 10 9 8 7 6 5 4 2 3 3 3 2 5 12 13 11 11 11 10 8 9 8 6 6 6 6 6 6 6 6
1 1 4 4 4 4 2 1 1 1 2 2 3 3 3 3 6 6 7 7 5 7 7 6 4 3 4 6 8 10 11 10 7 5 3 1 3 7 9 9 8 8 8 6 5 5 5 6 6 7 7 7 6 5
1 3 4 4 3 2 1 2 2 4 3 3 4 3 2 1 3 7 8 8 8 8 7 6 6 5 4 4 3 4 6 7 7 6 5 4 4 6 6 6 6 7 5 5 5 5 4 6 6 6 6 5 5 5
3 3 4 5 1 2 2 2 2 3 3 3 2 2 2 2 1 2 3 3 4 6 7 8 9 9 9 9 8 8 7 5 5 4 4 4 4 5 5 5 5 6 6 3 1 3 4 5 5 5 5 4 4 3
3 2 4 4 3 0 2 3 3 2 3 2 2 1 1 3 4 4 3 3 3 8 10 10 10 9 8 7 6 5 5 5 5 5 5 7 7 6 5 4 4 5 6 6 5 3 2 3 3 3 3 2 1 1

GFSWCAN_925_spd_120.txt.gz
Wind_Speed
29 28 28 29 24 21 26 21 19 15 25 19 12 14 13 11 16 13 6 10 5 2 3 6 5 6 4 4 5 7 6 2 4 5 4 4 4 5 4 10 9 5 7 3 3 4 3 10 5 5 11 13 12 13
22 26 25 24 22 22 23 20 18 16 17 20 12 14 14 12 16 15 4 8 7 4 3 4 9 11 12 12 7 3 6 5 3 4 2 3 4 3 6 5 3 4 5 5 5 5 15 18 14 14 12 10 4 8
24 27 27 26 23 20 22 23 20 21 22 17 12 17 14 13 17 17 7 8 7 1 6 9 6 6 13 18 14 4 3 3 4 3 3 3 4 3 5 6 9 7 10 3 11 10 17 9 12 14 11 10 8 10
23 27 28 29 25 25 21 24 22 24 20 14 14 16 15 13 17 16 7 8 6 1 3 2 4 8 5 11 17 24 14 4 6 5 4 3 4 5 7 9 13 4 8 9 4 8 11 16 13 11 11 9 8 10
22 24 27 28 27 26 28 26 22 22 20 16 17 17 16 13 17 12 7 9 15 5 3 6 17 12 6 18 16 19 17 10 5 3 3 4 5 5 4 6 3 4 4 5 3 11 7 6 10 10 10 10 12 12
20 24 26 26 26 28 30 26 23 21 22 22 20 19 18 15 16 7 1 10 13 8 3 3 4 6 5 9 13 12 14 7 5 3 3 3 6 3 3 4 7 8 4 7 5 13 3 11 10 15 14 12 12 11
23 23 26 26 26 30 28 26 24 22 21 23 21 19 18 18 16 4 0 4 11 11 2 3 4 1 2 3 4 4 9 4 5 3 4 7 7 3 3 7 8 8 7 7 11 12 4 12 8 13 12 12 11 12
26 24 25 27 29 27 29 28 26 23 22 22 20 19 17 16 10 7 5 1 14 4 2 2 4 3 5 3 3 5 4 4 5 4 3 4 2 3 4 5 6 9 7 8 13 9 7 8 10 12 14 13 11 11
28 27 27 29 29 32 29 27 25 24 22 22 20 16 11 6 6 6 6 8 7 4 2 3 3 1 2 2 1 3 4 5 4 4 3 4 4 4 4 5 7 9 7 9 8 7 9 10 10 12 12 13 12 12
30 30 31 31 31 30 32 27 27 26 25 24 16 5 3 7 10 15 7 4 3 4 3 4 4 4 3 0 1 1 3 3 3 5 3 3 2 7 6 5 6 8 8 9 8 9 10 10 10 11 10 10 9 10
31 31 31 32 34 34 34 29 32 31 28 13 5 4 4 19 8 4 4 5 5 3 5 5 10 9 4 5 3 2 2 2 3 3 3 4 3 4 4 5 6 7 8 8 7 7 8 9 10 10 10 11 12 13
28 28 29 31 31 37 34 36 31 27 13 14 10 7 11 4 3 5 4 4 5 5 6 4 5 6 3 3 4 3 3 2 2 2 3 2 3 4 3 5 5 7 9 8 9 9 10 10 12 12 12 13 14 13
28 30 30 31 32 32 34 34 34 20 20 11 5 4 4 4 7 6 9 5 5 4 6 6 4 4 4 4 3 2 4 2 1 2 1 3 5 3 3 4 4 8 10 9 10 11 12 12 12 13 13 14 14 11
28 29 29 30 31 33 36 33 29 22 7 3 4 8 5 5 6 5 6 6 4 4 8 8 5 3 2 4 2 4 2 2 3 3 1 3 3 3 3 4 4 6 7 7 9 11 11 12 12 11 12 12 12 12
27 27 28 29 32 34 34 29 30 16 3 2 3 5 7 3 1 2 3 4 2 5 8 4 3 3 3 3 3 1 3 4 2 2 3 3 3 2 3 4 4 4 4 4 5 6 8 9 10 11 12 12 11 10
25 24 23 32 27 28 31 30 15 7 2 3 3 3 1 4 3 4 4 4 2 6 4 1 3 3 4 2 4 5 2 3 3 3 3 4 3 2 2 3 3 3 4 4 5 6 8 8 9 9 9 10 10 10
27 11 27 31 28 28 28 10 5 3 3 3 1 1 3 2 2 3 2 3 1 5 4 3 4 3 3 3 3 1 1 3 4 4 2 3 2 2 1 2 2 3 3 3 3 5 6 7 6 7 8 9 8 7
17 20 34 34 30 25 12 3 3 3 2 0 2 1 2 3 2 3 3 2 1 1 2 1 1 4 3 4 3 3 3 4 3 3 3 3 2 2 2 2 2 2 2 2 2 4 4 6 7 7 7 7 6 5
22 27 34 36 30 8 3 3 2 3 2 2 3 3 2 3 3 3 3 4 5 4 2 1 1 1 2 2 3 4 3 2 1 2 2 2 2 3 3 3 2 2 2 2 3 5 5 5 7 8 8 7 6 4
25 30 36 37 25 3 4 3 3 4 2 2 3 3 2 2 2 4 5 4 2 2 3 3 2 2 2 4 3 3 2 0 1 1 1 2 4 3 5 5 4 3 3 2 2 3 5 5 6 6 6 5 5 3
46 36 41 31 5 3 3 3 3 3 4 3 4 2 2 2 3 3 3 3 3 3 3 3 4 4 5 5 3 3 5 4 3 3 3 2 4 4 4 4 4 4 4 4 4 3 4 5 5 5 5 4 3 3
22 32 17 12 4 3 3 2 4 5 3 5 4 2 3 2 2 2 2 3 3 2 2 3 4 4 4 4 5 5 4 4 4 4 3 2 2 3 4 5 4 3 4 4 5 4 4 4 4 4 3 3 3 3
18 9 5 4 4 3 5 5 3 3 3 4 3 3 2 2 2 1 3 2 2 2 3 6 6 6 7 5 6 6 5 4 4 4 5 5 5 5 6 6 6 5 4 5 4 3 4 3 3 3 3 4 5 6
7 5 4 3 3 4 3 2 3 4 3 2 3 3 3 2 2 2 3 2 2 3 4 6 6 5 5 4 4 5 4 4 5 5 4 3 4 6 6 6 6 6 5 4 3 3 3 3 3 3 4 4 5 6
5 6 3 4 2 3 3 3 3 3 3 3 3 3 3 2 2 2 2 3 3 3 3 3 2 1 2 3 4 5 5 3 3 4 5 4 2 2 3 4 5 6 5 4 4 3 3 3 3 3 3 3 4 5
6 5 4 2 2 2 3 4 3 3 4 3 2 4 2 3 2 3 2 4 4 3 3 3 3 4 4 3 3 3 3 3 3 5 6 6 5 4 3 4 4 5 8 4 3 2 1 1 2 2 3 3 3 4
4 3 3 3 2 4 4 3 3 3 3 3 4 4 3 3 3 2 3 3 3 5 4 4 4 5 6 7 7 6 6 6 6 6 5 6 6 6 5 5 6 7 8 7 3 2 1 1 1 2 2 3 3 2
3 3 4 2 4 4 3 3 2 2 2 2 4 2 3 3 3 3 2 5 8 7 7 6 6 6 6 5 5 4 5 5 6 6 5 6 7 7 6 6 6 6 6 6 4 2 1 2 2 2 2 3 3 3
3 2 4 5 4 4 4 2 2 2 2 0 3 3 3 2 2 3 7 7 7 7 7 7 6 5 5 4 4 2 2 1 4 2 2 1 0 5 7 6 6 6 6 5 7 6 4 3 3 3 3 3 3 3
3 2 4 4 4 3 3 2 2 2 3 4 4 4 3 3 4 2 5 6 4 4 4 4 4 3 4 4 5 5 6 6 4 1 1 1 2 4 6 6 6 6 5 4 3 2 3 3 4 4 4 3 3 2
2 3 4 3 3 3 4 2 4 4 2 4 5 5 5 3 3 3 4 4 6 6 5 4 4 3 3 3 3 3 3 3 4 4 3 2 2 4 5 5 5 5 4 3 3 2 2 2 2 2 2 2 2 2
2 3 4 4 4 5 1 0 2 3 2 2 3 2 3 3 4 5 4 5 4 5 4 5 6 4 6 6 6 6 5 4 3 3 4 3 3 4 3 3 4 4 4 3 1 2 3 3 2 3 2 2 2 1
4 3 4 5 4 6 4 3 2 3 2 2 2 1 1 1 3 3 7 8 4 5 7 7 8 9 8 6 5 5 4 3 3 3 3 5 5 5 4 4 4 4 4 4 3 2 2 2 2 2 2 1 1 1

GFSWCAN_925_spd_123.txt.gz
Wind_Speed
26 30 28 33 30 29 28 25 26 23 21 18 13 15 15 12 12 7 5 5 1 1 1 5 4 6 5 4 4 7 5 6 5 5 4 5 4 6 5 11 6 5 8 6 5 5 2 21 13 11 12 16 12 12
29 29 30 33 29 28 28 24 23 23 23 21 15 16 16 13 12 10 3 5 3 3 3 3 6 9 9 9 6 3 4 4 1 3 4 4 6 5 7 6 5 4 5 6 6 6 12 13 7 12 15 10 10 9
20 39 36 33 31 26 24 28 22 21 21 27 20 15 16 14 13 14 6 6 3 1 6 10 9 13 13 14 12 5 2 2 2 4 4 3 4 7 6 6 7 4 7 3 10 8 14 10 12 13 11 9 9 8
21 23 31 30 30 28 27 26 24 20 18 24 19 17 17 15 14 14 7 7 4 3 3 2 3 7 7 12 14 16 14 5 4 5 4 4 5 6 9 10 12 5 6 11 4 6 14 9 11 9 9 11 11 12
19 23 26 29 30 28 28 26 25 22 24 20 16 17 16 15 14 14 6 6 5 4 3 5 13 13 12 19 14 14 15 9 6 3 3 6 5 6 7 9 2 5 3 4 4 10 8 7 12 15 15 16 15 14
18 20 25 29 30 25 24 25 26 26 27 20 19 18 16 14 18 7 1 7 8 7 3 3 4 4 5 7 14 12 11 7 5 2 4 4 10 4 3 5 2 6 2 1 6 15 13 8 9 15 15 13 11 12
17 18 23 28 29 27 25 29 27 27 26 20 18 19 18 16 16 3 1 4 10 8 2 3 4 5 4 4 6 5 8 3 2 2 5 8 9 3 3 9 4 6 6 2 10 12 7 12 10 11 12 14 12 13
19 18 20 26 26 26 27 32 28 25 23 22 20 18 17 15 8 5 4 5 12 4 1 2 4 4 8 5 4 5 4 3 4 4 4 5 3 4 4 5 5 7 6 3 10 6 7 8 9 11 13 14 12 11
22 20 21 27 28 29 32 32 27 24 23 22 21 17 14 7 5 3 6 3 5 1 2 3 3 1 4 2 2 3 3 4 4 6 4 4 4 4 4 4 5 7 7 9 11 6 10 10 12 13 13 13 13 12
24 24 23 28 30 33 34 32 29 28 27 25 19 5 3 6 6 12 5 4 3 2 3 4 7 5 3 1 2 2 3 3 3 6 3 4 2 6 5 4 4 5 7 9 10 11 12 12 13 14 13 12 11 11
25 28 28 31 33 30 34 32 32 33 32 9 5 4 8 19 9 4 4 4 4 4 5 6 11 8 4 3 2 3 2 2 3 3 3 4 3 4 3 3 4 6 7 7 8 8 9 10 11 12 12 13 15 15
27 31 31 32 35 38 38 36 38 27 11 10 9 10 9 4 3 5 5 4 6 5 6 5 4 6 3 1 3 2 3 2 4 4 2 2 3 4 3 3 4 6 7 7 8 9 11 11 12 13 13 14 15 14
28 32 33 37 37 38 39 37 37 26 19 10 4 4 4 5 7 6 9 4 5 4 4 6 4 4 3 5 2 2 4 4 2 2 2 3 5 3 3 3 4 6 8 8 8 9 11 12 12 13 13 14 14 13
32 34 35 39 36 37 37 42 35 28 8 3 5 6 5 6 6 5 7 7 5 3 6 7 4 3 3 5 3 4 3 2 3 3 2 4 5 3 3 2 2 4 6 6 8 10 11 13 13 12 12 13 14 13
33 35 37 36 38 37 39 36 33 19 5 2 4 6 8 5 1 2 2 4 3 5 7 5 3 4 3 3 4 3 3 4 3 2 3 5 4 3 3 3 4 4 4 5 7 8 9 10 11 12 12 12 12 12
33 34 32 36 36 37 39 32 16 4 2 2 4 4 1 3 3 3 3 3 3 6 5 3 3 3 5 3 5 6 2 3 3 3 4 5 4 2 2 2 3 3 4 5 6 7 9 9 11 12 12 9 12 10
30 10 34 36 39 40 33 7 4 3 4 3 2 1 2 2 3 3 2 3 2 3 4 3 5 6 2 3 4 1 1 3 5 4 4 6 3 3 1 1 2 4 6 6 7 7 8 9 10 10 10 11 11 9
18 32 37 38 38 29 7 2 4 5 6 4 2 2 0 2 2 2 2 1 2 3 4 3 2 4 3 2 3 3 3 4 4 4 5 3 3 2 3 4 4 5 6 5 6 8 6 9 13 12 12 11 11 6
26 36 37 35 23 7 3 2 1 3 1 2 1 1 0 2 2 2 1 2 2 2 2 1 3 2 3 3 3 4 3 2 2 3 4 3 3 3 3 3 4 2 4 7 9 9 9 7 7 10 11 10 9 8
30 36 31 26 11 3 3 2 2 3 3 3 2 3 1 2 2 2 3 2 1 1 1 1 3 3 2 4 4 4 3 1 2 3 4 4 3 2 4 6 7 7 7 4 4 2 9 8 9 10 9 8 9 8
29 30 31 18 4 5 2 3 3 2 4 2 4 3 2 3 2 1 2 2 1 2 2 3 4 4 6 5 5 5 5 5 3 4 3 2 4 4 4 4 5 5 6 6 6 6 6 8 8 8 8 8 7 6
15 30 10 5 2 2 2 1 2 4 2 4 5 3 2 3 3 2 1 1 2 2 2 3 4 5 5 5 6 8 5 4 3 3 1 1 3 4 5 6 6 5 5 6 7 7 7 8 8 7 7 6 5 6
23 12 7 3 2 2 3 9 2 5 4 5 5 3 2 2 2 3 2 2 3 2 3 7 6 8 9 7 6 5 4 2 4 5 4 5 5 5 5 6 6 7 5 6 6 6 6 5 5 6 5 4 4 3
14 5 2 4 4 4 4 5 3 3 3 4 4 4 4 3 3 2 2 2 2 5 5 7 7 5 6 4 3 5 4 3 5 5 4 3 4 5 5 5 5 6 6 5 5 5 5 5 4 4 4 4 4 4
6 2 3 4 2 5 6 6 5 4 4 4 5 3 4 4 3 3 2 3 4 4 4 5 3 1 2 4 5 5 3 3 3 4 4 4 3 0 1 2 4 6 7 6 6 5 5 4 4 4 4 3 3 3
5 2 2 3 4 4 5 5 5 5 4 3 3 4 3 3 4 2 2 4 4 4 4 3 3 3 3 3 4 4 4 3 2 4 5 5 5 6 5 4 4 6 9 8 7 6 4 4 4 4 2 1 2 2
4 3 2 2 2 4 4 3 3 3 3 4 4 6 4 5 4 3 3 4 4 7 6 4 3 5 6 7 6 5 5 5 6 6 4 4 5 5 6 7 7 8 8 8 7 6 6 4 3 3 2 2 1 2
3 1 5 3 3 2 3 3 3 3 3 1 5 4 5 2 2 3 3 6 9 8 7 7 6 7 7 7 6 5 5 5 4 4 3 4 5 5 5 5 5 7 7 7 7 6 6 4 3 3 2 2 2 2
3 4 4 4 4 4 3 2 2 3 2 1 4 3 3 3 2 6 9 9 9 9 8 7 6 6 6 5 4 3 2 1 3 1 2 1 1 5 6 6 6 7 6 7 6 7 6 5 4 4 3 2 2 2
3 2 4 3 2 2 2 3 3 3 3 5 3 4 5 5 4 4 8 8 7 6 6 6 6 5 5 5 5 4 5 4 3 5 4 2 5 4 5 6 6 6 7 7 6 4 4 2 2 2 2 2 2 2
4 3 3 3 3 4 5 7 7 7 3 4 4 6 6 4 5 3 4 4 5 6 6 6 5 4 4 4 4 4 3 2 4 3 3 2 2 3 4 5 5 6 6 5 5 5 5 3 3 3 3 3 3 3
2 2 4 4 4 6 4 4 3 3 5 4 3 3 4 4 4 7 7 7 6 6 4 5 6 5 4 4 4 4 6 4 3 3 3 3 2 3 3 4 4 5 5 4 3 3 3 3 3 3 2 2 3 3
4 5 6 5 5 6 5 4 3 4 3 3 3 3 2 1 3 4 6 7 4 7 8 7 8 8 8 7 6 5 5 3 3 2 3 3 3 4 3 3 3 4 4 3 2 2 2 2 3 3 3 3 3 4

GFSWCAN_925_spd_126.txt.gz
Wind_Speed
25 25 24 26 25 24 25 22 22 21 19 16 14 12 10 8 6 5 5 3 7 1 0 2 2 3 1 3 5 5 1 5 5 6 4 5 4 5 5 8 4 5 8 6 5 6 5 18 9 8 8 10 10 9
24 26 23 27 26 27 27 25 22 21 20 16 12 13 11 9 7 3 4 3 3 3 1 5 7 8 8 6 5 4 4 2 2 3 4 4 5 4 8 4 6 3 4 5 5 3 3 3 4 6 7 8 9 11
22 27 25 30 29 29 28 25 23 22 19 18 13 12 11 10 9 5 2 3 1 2 5 7 8 11 12 10 7 4 3 4 5 5 2 3 3 6 6 5 6 3 4 2 10 5 12 3 8 9 7 8 11 12
21 25 27 28 30 29 27 24 20 21 20 18 18 13 12 11 9 10 2 3 3 3 2 1 1 8 5 8 9 12 9 8 5 3 4 4 5 7 7 9 9 1 2 6 5 5 12 11 9 10 9 9 9 11
17 23 32 34 31 28 24 25 25 20 18 19 20 15 14 11 9 7 4 2 3 3 3 5 9 11 12 10 9 10 8 6 5 3 2 4 5 5 6 7 1 2 3 3 3 7 7 7 8 12 11 12 11 12
13 19 27 32 36 29 26 27 26 23 20 23 18 16 15 12 8 4 1 6 3 2 2 3 6 5 7 5 11 16 10 5 5 3 3 4 9 3 3 4 3 6 4 4 3 10 6 9 9 11 12 11 11 12
13 14 21 28 29 28 28 27 25 22 24 21 17 17 14 11 15 1 2 2 5 4 2 3 4 2 5 4 7 6 10 3 4 2 4 8 9 3 3 7 4 4 4 1 6 7 7 11 9 11 11 14 13 14
14 14 16 26 24 26 26 24 25 26 26 19 17 15 13 12 2 2 3 5 8 3 2 2 3 5 11 4 3 3 3 2 2 3 5 6 4 4 3 6 4 6 6 3 9 6 8 9 11 11 14 14 12 12
16 17 17 20 26 25 24 25 28 27 24 19 15 15 11 4 3 3 7 5 2 1 1 3 3 1 5 4 3 2 3 4 4 5 4 4 3 5 3 5 4 5 6 8 9 9 10 10 11 12 13 13 12 12
19 18 19 23 23 28 26 30 29 26 23 21 18 4 3 5 11 12 2 2 1 1 3 3 7 4 1 1 2 3 3 3 3 7 4 4 1 7 6 4 3 5 7 8 8 10 10 11 11 12 12 11 11 11
20 20 18 22 26 29 30 33 29 27 29 9 5 3 10 18 6 3 3 4 4 3 4 5 9 8 4 3 2 4 2 2 3 2 4 4 3 4 4 3 5 6 7 8 8 9 10 10 10 11 11 14 14 15
21 20 21 22 24 32 36 37 37 28 15 10 10 13 8 4 2 4 4 4 5 4 6 6 5 8 3 1 1 2 2 1 4 5 2 1 3 5 5 5 6 8 7 8 10 10 12 13 14 13 13 14 14 14
22 22 25 27 27 33 39 39 38 26 20 14 4 3 3 4 6 6 8 4 4 3 3 4 3 1 2 2 0 1 3 5 3 2 1 3 7 5 5 4 7 9 10 9 10 10 11 12 12 12 12 13 13 13
23 26 29 29 30 40 38 43 32 28 7 2 4 6 5 5 6 6 7 8 4 3 5 7 4 2 2 3 2 4 4 3 3 3 2 4 7 6 5 3 3 8 7 5 7 9 9 11 11 10 9 10 13 12
26 30 31 31 35 44 39 41 30 15 3 3 3 5 7 5 3 4 2 2 4 4 5 5 3 3 3 3 4 4 3 4 3 3 3 5 6 5 5 5 6 5 3 5 5 5 6 7 8 10 9 5 10 9
30 30 28 33 43 46 41 35 23 4 2 2 3 4 4 4 2 1 2 2 2 1 3 3 3 3 5 3 5 6 3 2 3 3 4 6 6 6 5 4 5 4 4 5 5 6 6 6 9 10 9 2 10 6
36 7 32 35 38 41 37 11 7 3 4 2 1 2 4 1 3 2 2 2 4 2 3 2 4 7 3 3 4 1 3 4 5 5 6 8 7 6 2 1 4 3 5 4 7 8 7 5 12 10 11 10 13 5
13 33 40 42 37 28 12 3 3 3 4 4 2 3 1 2 2 2 2 4 2 2 4 3 3 3 3 2 2 3 4 5 6 6 6 6 7 5 4 4 4 4 4 5 5 8 6 9 9 10 11 12 11 9
37 41 41 40 26 9 3 3 4 4 1 3 2 2 1 2 0 1 1 2 3 3 5 2 4 3 3 3 4 4 4 2 3 4 5 6 4 3 2 3 6 1 3 3 5 6 8 6 7 10 11 11 11 10
40 41 39 33 19 5 4 2 1 3 2 2 2 3 2 2 2 0 1 2 1 2 3 2 3 3 3 4 5 5 4 2 0 3 5 5 5 2 4 4 6 6 6 5 4 5 8 8 10 10 9 9 9 10
35 34 33 14 1 4 3 1 3 3 4 2 3 3 3 1 2 3 2 0 2 1 1 2 4 5 8 8 7 7 7 7 5 5 4 4 4 3 4 5 5 4 6 7 7 8 9 9 9 8 8 7 8 7
15 21 4 4 3 2 3 3 3 3 2 4 3 3 2 3 3 3 2 2 2 2 2 2 5 5 5 5 8 8 5 4 5 6 4 4 4 5 6 6 6 6 6 7 8 7 7 8 7 7 6 6 5 6
19 7 3 3 3 2 3 4 2 5 4 5 4 3 2 3 2 3 2 2 2 2 4 8 9 12 11 8 7 5 3 3 7 6 4 5 5 5 5 6 7 7 7 7 6 6 6 5 6 6 6 5 4 2
12 3 2 4 3 4 4 4 3 3 3 3 4 4 3 3 4 3 2 3 3 6 5 8 8 6 7 6 5 6 5 4 6 5 6 3 5 5 4 5 5 6 5 4 4 4 5 5 6 5 5 4 4 5
4 3 3 4 3 5 5 5 4 4 3 4 4 3 3 3 4 3 2 4 5 4 5 6 5 3 3 6 7 5 4 5 4 6 5 6 6 2 2 3 5 7 7 9 7 5 3 5 4 5 6 7 7 5
4 3 4 8 6 5 6 5 7 6 3 4 4 3 3 3 4 3 2 4 4 5 4 4 4 3 4 6 5 7 5 3 2 7 6 6 7 8 8 5 4 9 10 9 10 9 6 3 3 5 4 2 3 6
6 5 3 2 2 3 3 0 3 3 6 5 4 6 5 4 4 3 4 6 6 9 8 5 3 6 8 8 7 7 5 6 8 8 6 6 6 6 7 7 8 7 8 8 9 10 10 7 4 4 4 3 3 5
2 4 6 6 3 1 2 3 5 5 3 2 6 5 4 1 3 2 3 10 12 10 8 9 9 9 10 9 8 7 6 5 5 5 5 6 6 6 5 5 5 6 8 4 7 8 9 10 8 5 5 5 4 4
3 4 4 6 3 2 2 2 2 2 2 2 4 3 3 3 2 6 9 11 11 11 10 9 8 8 8 7 6 5 4 3 4 2 2 1 10 7 6 5 6 7 7 9 6 7 9 6 5 6 6 6 5 4
4 4 4 3 3 3 2 3 2 3 3 3 3 3 3 4 4 7 10 10 10 9 9 9 9 9 8 8 8 6 5 4 3 6 6 6 5 4 4 5 6 7 7 8 8 8 6 7 5 3 4 5 7 7
5 3 3 3 3 4 4 6 6 4 1 2 3 5 5 3 4 1 3 7 10 9 9 8 6 6 5 5 6 8 6 3 3 4 5 3 2 3 4 4 5 5 7 7 7 7 7 8 6 6 7 7 6 7
3 3 4 4 3 5 6 5 4 3 4 4 3 3 4 5 5 8 8 8 9 9 5 9 9 7 5 5 4 6 9 6 4 3 3 4 2 1 2 3 4 5 5 6 5 5 6 7 7 8 9 8 6 6
3 4 5 4 5 6 5 5 4 4 4 4 4 7 4 4 4 4 10 10 6 10 11 9 11 9 9 8 7 8 6 5 4 4 4 4 4 4 4 0 1 4 4 5 5 5 5 6 6 6 6 6 6 7

GFSWCAN_925_spd_129.txt.gz
Wind_Speed
28 27 25 25 25 24 24 22 19 20 20 16 14 13 11 9 9 12 12 14 7 3 4 6 4 3 4 4 3 4 4 4 4 5 3 3 2 2 2 1 3 2 3 3 3 5 4 13 6 6 4 5 10 9
27 25 23 24 24 24 24 21 22 23 20 15 14 14 13 11 10 12 7 10 10 5 1 6 6 6 5 8 3 5 2 0 3 3 3 2 2 3 2 2 1 3 2 3 3 2 1 2 1 4 5 5 5 7
26 26 25 26 25 25 24 23 22 20 19 15 14 15 13 11 9 11 11 8 6 3 3 1 4 6 6 4 2 3 3 4 3 2 2 2 1 1 1 3 2 2 0 2 3 3 8 2 4 6 7 6 8 7
22 25 25 27 25 27 26 25 22 21 18 15 12 13 14 10 11 9 7 5 4 0 2 3 8 6 9 8 9 6 2 3 2 2 2 1 1 2 2 5 2 2 1 3 2 4 5 8 6 6 7 8 7 8
25 26 27 30 27 28 27 24 20 20 16 15 13 12 13 11 8 6 3 4 6 3 1 3 14 9 10 10 10 10 7 1 2 2 2 2 2 2 3 2 1 1 1 1 1 4 4 3 4 4 7 9 9 10
22 25 28 29 29 27 25 21 18 19 18 17 17 12 12 10 10 4 3 3 3 3 3 2 6 4 10 17 14 12 10 3 3 2 2 3 5 1 1 2 3 4 4 3 2 2 1 8 3 6 6 8 8 9
14 22 25 29 29 27 23 25 22 20 19 22 16 14 13 10 8 4 2 3 4 4 2 3 4 4 10 11 4 2 8 2 3 2 2 2 3 0 1 3 6 4 5 6 3 3 1 5 5 9 10 12 13 15
11 12 21 37 33 27 23 27 27 21 24 20 17 15 13 12 6 4 5 7 8 0 0 1 3 3 6 2 1 1 2 2 2 2 2 2 2 2 3 5 8 6 5 8 6 8 6 9 11 10 13 13 10 10
16 13 18 27 36 30 28 28 26 26 24 19 18 18 14 3 2 4 8 9 4 3 1 2 1 1 4 2 3 2 2 1 2 2 3 2 2 3 3 5 7 6 5 5 6 10 10 10 10 10 10 10 8 8
16 15 16 23 30 27 29 27 28 28 24 25 19 5 2 4 10 12 3 2 2 2 1 3 2 2 1 1 2 3 2 2 2 5 2 2 1 5 6 6 7 6 8 7 6 8 8 7 8 9 9 10 10 10
17 17 17 23 29 28 26 31 34 32 29 8 4 2 8 19 3 2 2 1 1 2 3 3 5 2 2 2 2 3 2 2 2 2 3 3 3 3 5 8 8 7 10 9 11 12 11 9 8 8 9 12 13 14
18 18 18 19 26 29 32 37 37 23 14 11 13 14 8 2 2 2 3 1 4 4 4 3 4 5 3 3 3 3 2 1 5 3 2 1 2 5 7 11 9 11 10 11 14 11 11 11 10 9 10 11 12 12
20 18 19 21 26 32 36 38 35 25 22 16 4 3 3 2 3 5 5 3 2 3 2 2 2 2 3 2 2 2 2 4 2 2 2 2 5 4 8 10 10 12 12 11 11 10 9 9 9 8 8 7 11 11
22 20 20 22 23 32 40 40 33 22 6 3 4 6 4 4 4 4 4 4 5 3 4 4 2 2 1 2 2 2 4 2 3 1 2 3 5 7 6 8 10 7 7 7 7 6 6 7 7 9 7 5 11 10
22 21 22 23 22 39 45 39 29 15 3 3 3 4 5 3 1 1 2 2 1 4 4 3 2 2 1 2 2 2 2 4 4 2 2 4 7 8 7 7 7 6 5 4 5 3 3 5 9 11 10 4 10 10
20 18 21 24 25 40 45 35 16 4 2 1 1 1 2 1 1 2 3 2 4 1 2 2 2 2 3 3 3 6 3 3 2 2 3 7 9 7 6 6 8 4 3 6 4 3 3 6 11 12 9 3 12 9
25 8 25 30 36 41 37 10 5 2 2 0 1 2 1 0 2 2 3 3 9 2 2 2 3 7 1 2 3 3 2 1 5 5 5 7 7 5 6 8 6 5 6 5 6 7 6 1 6 10 12 14 13 7
12 20 32 41 35 31 13 3 4 3 3 3 3 4 2 2 2 2 2 4 3 3 1 1 2 1 3 1 2 2 2 4 5 5 5 5 8 8 7 6 3 3 5 2 3 6 5 6 9 10 11 13 13 12
27 37 38 46 29 10 3 2 2 3 1 3 3 1 3 1 0 0 1 3 1 0 2 1 3 1 2 2 2 3 2 1 3 3 2 9 9 8 4 5 6 5 2 2 4 6 9 11 9 8 9 10 11 12
43 42 41 30 17 4 4 2 4 3 3 2 3 3 2 1 1 0 1 2 2 1 2 2 1 1 2 1 3 3 2 2 3 4 5 3 8 8 6 6 5 7 8 9 9 8 10 10 10 8 6 8 10 9
38 33 25 14 5 7 3 1 3 2 3 2 2 3 2 1 2 3 2 0 1 1 1 1 3 3 9 11 10 13 12 11 3 3 4 2 7 12 10 9 6 10 12 11 9 10 11 8 7 7 7 7 7 6
19 21 8 6 6 4 3 4 3 2 3 2 3 2 2 2 2 2 2 1 0 1 1 2 3 3 3 3 9 10 8 7 10 11 10 11 4 8 10 10 10 9 12 11 9 8 6 6 7 6 5 6 2 7
21 12 4 3 3 2 1 0 3 2 3 3 2 2 1 2 1 2 1 1 1 2 7 6 8 14 12 10 8 7 5 9 10 9 9 11 10 10 10 11 9 11 9 7 5 5 4 4 6 6 7 7 8 3
7 3 4 3 3 3 2 2 2 2 2 2 3 3 3 2 2 0 3 2 2 8 4 10 12 5 8 9 4 8 7 8 12 12 12 7 9 10 9 10 9 8 8 4 4 3 4 4 5 7 7 7 7 5
5 1 4 3 2 4 4 3 2 2 3 3 3 2 2 2 2 3 2 2 3 3 3 9 9 7 4 4 10 9 8 7 11 10 12 11 12 3 9 14 15 11 8 10 12 10 0 3 3 4 3 4 4 7
2 1 3 4 2 4 4 4 6 4 3 2 2 2 2 2 3 3 1 3 3 4 3 4 4 3 4 11 7 9 8 6 13 16 12 10 12 12 11 8 8 8 9 10 10 13 11 2 2 5 6 2 4 8
3 3 1 1 2 2 2 1 3 3 4 4 3 3 3 4 4 2 1 4 3 11 13 9 10 13 11 15 16 13 8 11 15 13 10 7 7 8 9 9 8 6 6 7 7 8 10 12 6 4 5 5 5 5
2 2 4 2 3 2 2 2 3 4 3 2 4 4 4 2 2 1 2 12 19 19 19 19 19 20 18 16 14 11 9 10 11 10 10 10 9 8 6 6 5 4 6 4 6 9 7 4 8 8 7 3 5 5
2 2 3 3 2 2 1 1 1 2 2 2 2 2 2 2 2 3 10 17 18 18 17 17 16 17 17 15 12 10 8 6 3 5 5 5 8 6 4 3 4 4 3 8 6 6 7 7 6 4 5 5 3 4
2 3 3 2 3 3 1 1 1 1 2 3 3 2 2 2 5 11 13 14 14 15 16 16 15 14 14 13 11 7 3 2 5 10 6 5 7 5 1 2 3 4 5 6 7 8 6 8 8 3 6 7 8 8
3 2 4 3 2 2 2 3 2 2 0 2 2 2 3 2 1 4 3 11 19 22 20 15 10 14 13 16 15 13 6 4 7 8 8 7 5 3 2 4 4 4 5 4 7 6 7 10 9 10 9 8 7 8
3 3 3 3 2 3 2 2 3 2 1 2 2 2 2 2 2 5 7 14 16 16 15 15 15 13 12 11 11 8 8 10 8 8 8 7 5 4 6 4 3 4 4 8 7 6 7 7 8 9 7 7 7 6
2 3 3 3 3 4 4 3 3 4 3 3 3 4 4 4 5 3 13 17 15 15 17 17 17 14 11 11 11 10 9 7 7 7 7 6 6 6 4 4 4 5 5 5 6 6 5 5 6 5 6 6 6 6

GFSWCAN_925_spd_132.txt.gz
Wind_Speed
28 28 28 29 28 25 27 26 25 23 21 19 18 17 16 14 13 14 13 16 5 3 3 6 4 4 4 3 4 2 4 4 3 3 2 2 1 2 2 1 2 0 2 2 2 4 4 11 7 5 3 4 8 7
28 29 28 27 26 29 27 25 24 23 21 19 18 19 17 16 13 12 7 13 14 6 3 3 7 8 7 4 5 3 5 3 3 3 1 2 2 2 1 1 2 2 3 2 2 1 2 2 3 4 4 4 4 5
28 28 27 28 28 28 25 23 26 24 20 19 18 19 20 18 16 16 16 9 9 3 4 5 1 6 8 5 4 4 2 1 2 4 3 2 1 2 1 3 0 2 2 3 2 2 2 2 0 5 6 6 6 4
28 27 27 28 29 28 26 28 27 23 21 21 20 19 20 19 17 18 18 12 8 5 4 3 3 3 8 7 5 7 5 5 4 3 2 2 1 2 2 4 3 4 3 2 2 2 2 3 2 4 4 5 6 6
28 28 29 30 30 29 30 28 27 24 22 22 20 18 18 17 16 17 17 14 11 4 3 1 8 2 12 10 10 8 6 3 3 2 2 2 2 1 2 1 2 2 3 2 3 2 2 2 5 4 3 4 6 6
28 28 31 29 32 31 31 29 26 23 18 20 19 17 16 15 14 6 3 8 7 3 3 2 5 2 11 11 11 9 6 2 2 3 2 3 3 2 1 2 2 3 3 4 3 4 5 5 7 8 6 6 7 7
27 28 32 31 32 31 28 23 21 21 20 20 19 18 16 13 9 6 4 3 3 3 3 2 3 4 10 7 2 1 2 2 3 1 1 2 2 2 1 2 3 4 5 3 2 2 2 8 4 7 10 10 11 11
27 30 30 31 32 30 27 23 25 23 23 20 20 19 17 17 12 8 8 7 5 4 4 3 2 3 4 1 2 2 2 2 1 2 1 2 2 2 2 2 4 7 8 7 8 9 6 7 10 10 11 11 7 7
23 28 32 31 30 29 28 25 23 26 24 23 22 21 13 4 3 5 10 7 8 5 3 2 3 3 1 2 2 2 2 1 1 2 2 3 2 4 5 7 5 4 5 6 8 8 8 9 7 7 8 7 7 8
16 23 28 33 32 29 28 31 29 28 29 28 20 4 2 4 15 12 3 3 4 3 2 1 0 1 2 1 2 2 1 1 2 4 1 2 2 2 6 7 7 7 6 4 3 4 5 5 6 6 7 8 9 10
18 18 27 40 35 34 34 32 33 33 30 7 3 2 8 17 3 3 3 2 1 2 1 3 4 1 2 3 3 3 3 1 2 3 3 3 3 4 9 9 7 10 13 12 12 10 8 6 5 6 7 10 11 12
19 21 25 37 37 35 36 39 38 19 10 8 15 16 7 2 2 4 1 1 2 3 3 3 4 4 3 2 3 2 2 1 4 3 2 1 2 8 10 10 9 11 13 12 12 10 8 6 6 5 7 7 11 11
21 24 28 31 34 36 39 40 28 21 31 9 5 3 3 1 5 4 4 2 1 2 3 2 1 3 3 3 3 2 2 4 2 1 2 1 4 6 10 8 8 11 13 12 9 8 6 5 5 5 6 8 12 12
22 21 24 31 34 39 42 37 25 22 3 3 3 4 2 2 3 3 3 3 4 3 4 4 2 2 0 3 2 2 4 2 3 1 3 2 6 7 8 6 7 6 8 8 6 4 3 6 6 6 6 6 10 12
22 21 19 31 37 42 40 34 25 6 3 2 3 3 3 3 0 1 2 1 4 2 4 3 3 2 2 3 1 1 2 4 4 3 1 2 7 9 9 7 6 6 7 6 4 3 0 4 8 8 6 5 11 12
20 18 14 24 33 39 36 24 10 2 2 3 3 3 1 3 1 3 3 2 3 1 2 3 2 3 2 3 2 5 2 4 2 1 3 6 7 7 7 6 8 7 7 7 2 1 2 3 5 6 8 9 10 9
19 5 20 24 21 39 34 15 4 4 2 3 1 2 2 2 3 2 2 2 7 2 2 2 4 6 2 1 3 1 3 1 2 3 3 4 5 5 7 9 7 7 8 3 3 3 1 0 5 7 9 10 9 13
6 15 24 28 31 32 12 4 3 3 2 1 3 2 1 2 2 2 1 2 2 1 2 1 0 2 3 3 3 3 1 2 4 4 2 3 7 10 10 8 5 6 5 3 2 2 2 7 6 4 6 9 9 12
19 24 27 35 28 11 3 2 2 3 2 2 2 2 2 1 1 3 2 1 1 1 1 0 2 2 3 2 2 2 4 3 3 2 2 9 10 9 7 7 4 5 6 5 5 9 9 6 4 4 7 8 7 10
21 30 32 32 15 4 4 2 2 4 3 3 2 1 2 1 2 2 1 0 1 1 0 2 3 3 3 1 1 3 2 4 5 2 0 0 7 8 7 5 5 8 9 12 11 11 7 6 6 6 5 6 5 6
29 30 26 20 4 6 3 2 3 2 2 2 2 2 1 1 1 2 1 0 1 2 2 2 2 0 7 10 13 13 9 8 2 2 3 2 8 9 8 6 12 12 13 10 11 7 5 6 4 5 5 5 7 4
14 24 13 4 4 3 3 5 4 2 2 1 2 2 2 3 2 3 2 1 2 3 3 3 3 2 3 3 7 11 11 13 13 14 14 15 4 8 9 10 13 12 10 8 7 5 4 5 5 4 5 6 2 3
14 13 6 5 5 4 1 3 4 1 3 4 1 1 1 1 1 2 0 2 3 3 3 4 10 14 13 11 10 8 10 13 10 11 13 14 14 13 13 12 11 9 6 5 3 2 0 2 4 4 6 4 3 3
8 4 3 3 4 2 2 1 1 2 2 2 3 2 2 2 1 2 3 3 3 3 2 8 13 6 8 8 4 6 11 17 15 13 10 15 12 12 12 14 12 10 8 6 0 2 1 1 1 2 4 3 2 3
5 3 5 3 2 4 3 3 1 2 3 4 3 0 2 2 1 2 3 2 4 2 3 11 9 7 3 2 8 12 8 15 13 10 10 8 9 13 14 14 11 10 7 5 8 8 3 2 1 3 3 4 3 5
5 3 3 5 1 4 4 4 5 5 3 2 3 2 2 2 1 5 2 3 3 3 4 6 5 2 4 10 6 9 12 17 16 14 9 7 9 15 12 9 6 5 6 6 6 6 7 3 2 1 1 1 3 5
3 2 2 1 1 3 3 1 2 3 3 4 3 3 2 3 5 3 1 2 2 7 13 16 18 13 12 15 15 11 10 14 9 11 11 8 9 8 8 8 6 4 3 4 6 7 5 6 2 3 3 4 3 5
3 2 5 3 3 1 3 2 4 5 4 2 4 4 6 6 4 1 2 10 21 20 18 18 19 23 24 20 17 17 18 17 17 16 15 13 10 8 7 6 5 2 3 1 4 7 5 4 5 5 3 4 3 5
1 1 3 3 2 2 1 4 4 1 1 2 4 3 4 1 2 1 11 19 21 24 20 19 22 24 23 19 16 16 18 18 18 5 4 2 4 4 2 2 1 1 1 3 2 2 5 4 4 4 5 4 5 5
2 2 4 2 5 5 3 2 2 1 1 2 3 2 1 1 4 12 20 19 17 17 21 23 26 25 23 21 17 12 9 7 6 10 7 6 10 8 3 1 1 1 2 2 3 3 3 3 6 6 3 5 4 3
2 3 3 2 2 2 2 1 2 2 2 2 2 3 2 1 1 5 13 17 17 20 22 22 19 18 20 18 16 13 7 8 7 7 9 11 10 7 4 5 4 2 2 3 4 4 5 5 5 4 4 4 4 3
2 3 4 3 1 3 2 2 1 1 1 2 0 2 1 2 2 3 12 20 21 20 23 22 21 19 18 14 12 8 5 13 14 11 9 8 7 6 7 5 3 3 4 4 3 3 3 4 3 4 4 3 3 3
2 3 2 2 2 1 2 1 2 1 1 2 3 4 4 5 6 4 15 23 27 27 27 22 19 19 17 14 13 12 11 12 12 11 9 8 7 8 7 6 4 4 4 3 3 2 2 2 3 2 3 4 5 6

GFSWCAN_925_spd_135.txt.gz
Wind_Speed
28 31 32 33 32 32 32 33 30 27 25 26 23 18 18 19 13 16 13 9 7 3 3 4 3 5 4 3 4 3 4 4 3 3 2 2 2 2 1 2 3 3 1 2 2 3 4 7 3 4 4 4 4 5
28 29 29 31 30 29 31 32 29 27 25 25 22 18 18 15 14 16 9 19 17 6 4 7 14 10 6 6 5 3 4 3 3 4 0 2 2 2 2 2 2 1 4 3 4 3 2 2 1 4 4 4 4 4
30 29 28 27 31 31 31 31 30 27 25 25 24 19 16 12 12 18 16 13 16 4 4 5 4 6 8 9 6 4 1 4 2 3 3 2 1 3 1 3 1 2 2 2 2 2 2 0 1 2 3 5 5 4
31 30 29 31 31 30 29 29 28 26 26 25 25 22 20 18 18 18 15 12 12 5 4 1 4 5 7 6 10 10 9 6 6 3 3 2 1 3 2 3 3 5 5 2 3 2 3 4 3 4 5 2 4 5
31 31 32 31 30 27 28 29 27 26 26 25 25 24 23 23 25 28 27 20 11 6 4 3 2 4 9 10 12 13 13 4 3 2 2 2 1 1 1 1 3 4 4 3 4 3 3 2 5 4 4 4 5 5
31 31 31 31 28 33 32 29 30 29 26 24 23 22 22 23 15 6 4 11 11 7 4 3 2 2 4 9 11 10 8 3 3 3 2 2 3 2 1 2 3 2 2 4 3 4 2 5 7 8 5 4 6 6
32 33 31 31 33 35 32 30 30 29 26 24 22 20 17 10 7 8 4 5 7 6 3 3 2 3 5 4 2 3 4 2 2 2 1 1 2 3 2 2 2 4 4 3 3 5 3 4 3 6 7 6 7 7
33 33 33 34 34 34 31 29 26 26 25 25 24 24 23 19 13 12 13 8 6 9 4 3 0 2 3 1 2 2 2 2 3 1 1 2 2 1 2 3 3 6 8 8 8 8 6 8 7 6 8 9 7 8
33 33 35 35 35 32 26 27 27 26 26 27 25 21 15 7 4 5 9 10 13 6 3 3 4 3 2 2 2 2 2 2 1 1 2 3 2 4 4 6 6 3 3 8 7 7 6 6 5 5 5 7 7 8
35 35 37 36 33 27 29 29 30 28 29 28 14 6 3 3 15 7 4 4 4 3 3 2 0 2 3 1 2 2 1 1 1 3 2 2 3 1 3 6 6 6 7 6 4 2 2 3 5 6 6 7 8 9
34 35 35 36 34 29 31 32 32 32 27 3 3 2 7 11 2 3 3 3 1 3 1 1 1 3 1 3 3 1 2 1 1 2 3 2 3 4 6 8 6 9 11 9 10 9 7 5 3 4 5 7 9 10
30 34 35 36 35 32 34 35 36 15 6 6 15 12 6 3 3 4 1 2 0 2 2 4 3 3 0 2 3 0 3 1 3 2 2 3 1 9 9 9 7 9 11 10 9 8 6 5 4 3 4 5 8 10
23 33 37 35 35 39 38 37 24 15 31 10 5 4 3 2 5 4 4 1 0 3 3 2 1 2 2 3 3 3 3 3 1 2 3 3 5 7 8 7 7 9 11 10 8 7 6 5 4 3 4 6 9 12
22 34 39 40 41 42 39 30 28 20 4 3 3 3 3 1 2 2 3 3 3 3 4 3 2 2 0 3 2 3 3 2 2 2 4 2 3 7 7 6 7 6 7 7 6 4 4 4 4 6 6 8 8 13
22 29 40 37 43 42 34 23 17 5 3 3 3 3 3 2 1 1 0 1 3 1 4 3 3 3 2 3 0 3 3 3 4 4 2 2 5 7 7 6 6 5 7 5 4 2 1 2 4 7 8 7 10 10
23 22 18 43 43 38 24 21 6 5 3 3 4 3 2 3 2 2 2 3 3 1 2 3 2 3 1 3 2 4 3 5 4 2 1 5 5 5 5 5 7 9 8 7 3 2 3 2 3 4 8 9 8 10
10 4 30 39 39 30 21 9 4 4 3 3 2 1 2 3 3 1 2 1 4 2 2 3 3 5 1 2 2 3 4 3 3 3 3 3 5 5 7 9 9 8 8 5 3 2 2 3 4 6 8 7 8 8
10 19 27 39 36 25 7 5 3 2 3 0 2 2 2 0 3 2 1 2 2 1 1 1 0 2 4 4 3 3 2 1 2 3 3 4 6 9 11 9 7 7 6 5 4 3 3 4 3 3 4 5 6 10
24 22 21 35 28 9 3 2 2 3 1 1 2 1 2 1 2 3 3 3 3 3 2 1 2 3 3 3 3 2 2 2 3 2 2 7 11 11 9 6 5 4 4 5 6 6 6 3 2 3 4 5 4 6
21 25 25 26 10 4 3 2 2 3 3 3 2 1 2 2 1 1 2 2 2 2 2 3 4 3 3 2 2 2 2 4 4 4 1 1 7 10 7 6 6 6 9 9 9 6 3 0 1 2 3 5 6 6
19 19 28 9 4 4 3 3 2 2 3 2 1 2 0 2 2 1 1 1 2 2 2 3 3 1 2 5 7 8 9 9 3 3 4 3 7 10 8 7 9 10 12 10 8 3 1 1 2 3 4 4 5 4
9 21 5 3 3 2 3 4 4 2 3 2 2 2 1 0 1 2 1 2 3 3 3 3 3 3 2 2 5 9 11 11 10 11 13 17 4 6 8 12 11 9 8 7 4 2 1 2 2 3 4 5 3 2
17 7 3 3 4 3 0 1 4 1 4 4 2 2 1 2 1 1 1 3 3 3 4 3 6 11 13 11 11 10 11 12 9 11 13 15 13 11 11 10 10 10 7 5 3 1 2 2 4 4 6 4 3 2
8 3 3 3 3 2 1 2 2 3 3 3 3 1 2 2 0 2 3 3 3 2 2 6 14 6 8 8 3 8 12 14 13 12 13 14 11 10 14 13 10 8 5 3 3 4 3 3 3 4 4 5 4 4
4 4 4 3 2 4 3 3 2 3 2 3 3 2 2 2 1 2 3 3 3 1 2 9 9 7 3 2 8 12 16 16 13 8 7 12 17 16 13 11 9 7 4 0 2 2 6 5 2 4 3 3 3 5
5 2 3 4 0 4 4 4 4 5 4 2 4 1 2 3 0 6 3 3 2 3 3 7 5 3 2 10 5 8 14 14 16 12 7 8 16 20 16 11 6 3 2 3 3 3 3 4 3 2 3 1 3 6
4 2 1 1 2 3 3 2 2 3 4 5 3 3 3 3 5 3 1 1 2 6 18 19 18 14 11 14 13 12 16 15 9 11 11 8 6 8 13 10 7 2 2 3 3 4 3 3 0 1 1 2 2 4
3 2 5 2 2 1 4 3 4 5 4 2 5 4 5 7 4 1 2 2 10 16 18 14 13 16 21 21 19 20 18 18 19 17 16 14 10 8 7 6 5 3 1 2 2 5 4 2 2 2 1 1 2 4
1 1 3 2 2 2 3 4 4 1 0 2 5 4 4 2 1 1 3 13 17 21 19 17 15 22 23 20 19 21 24 24 22 5 4 2 5 5 6 4 3 2 2 1 2 1 2 2 1 1 3 2 1 2
1 1 3 1 4 4 1 1 2 1 1 2 2 2 1 2 1 5 14 17 18 16 19 23 28 26 22 23 20 17 17 18 11 11 6 6 10 10 8 4 3 2 2 2 1 1 2 1 5 3 1 1 1 2
2 3 3 2 1 2 1 1 2 2 1 1 2 2 2 2 2 8 19 21 19 19 22 21 22 22 25 24 23 18 10 13 10 8 8 7 12 10 7 5 5 4 3 3 2 2 2 2 1 0 1 2 3 4
2 3 3 2 2 2 2 2 1 1 2 2 2 2 2 3 3 4 14 25 23 19 20 26 24 24 22 18 16 12 7 12 14 11 11 10 9 8 7 6 4 4 5 3 2 2 2 1 1 1 2 3 4 6
3 2 2 2 2 0 2 2 1 2 1 2 3 4 4 5 6 3 11 27 27 26 27 26 22 20 19 16 14 9 9 15 15 13 11 9 7 7 7 5 5 5 4 3 2 1 2 2 2 2 3 5 7 8